{"data":{"norad_id":40030,"intl_designator":"2014-033W","name":"DTUSAT-2","alt_names":[],"object_type":"PAYLOAD","status":"ACTIVE","operator":null,"country":"DEN","launch_date":"2014-06-19","launch_site_code":"DLS","launch_vehicle":null,"mission":null,"orbit_class":"UNKNOWN","rcs_meters":0.0081,"size_class":null,"mass_kg":null,"dimensions":null,"purposes":[],"wikipedia_slug":null,"has_3d_model":false,"image_url":null,"decayed_at":null,"tle_current":{"epoch":"2026-09-19T23:33:15.268608Z","epoch_age_seconds":82135,"freshness":"FRESH","line1":"1 40030U 14033W   26262.98142672  .00004216  00000+0  22294-3 0  9999","line2":"2 40030  98.0927 266.8360 0006024 272.2482  87.8059 15.16068449667048","mean_motion":15.16068449,"eccentricity":0.0006024,"inclination_deg":98.0927,"raan_deg":266.836,"arg_perigee_deg":272.2482,"mean_anomaly_deg":87.8059,"bstar":0.00022294,"rev_number":66704,"period_min":94.982518826892,"perigee_km":513.58267110553,"apogee_km":521.89081979405,"semimajor_km":6895.8737454498,"source":"CELESTRAK","updated_at":"2026-09-20T09:00:14.009391Z"}}}